timestamp,surface_pressure_avg,surface_temp_avg,battery_voltage,lat,long
2018-10-11 00:00:00+00:00,372.3713,11.0,13.05,47.84626,-54.09684
2018-10-11 00:10:00+00:00,382.7579,11.0,12.97,47.84626,-54.09684
2018-10-11 00:20:00+00:00,389.6462,11.0,13.05,47.84626,-54.09684
2018-10-11 00:30:00+00:00,386.3546,11.0,13.05,47.84626,-54.09684
2018-10-11 00:40:00+00:00,384.5197,11.0,13.05,47.84626,-54.09684
2018-10-11 00:50:00+00:00,387.7562,11.0,13.05,47.84626,-54.09684
2018-10-11 01:00:00+00:00,387.5845,11.0,13.05,47.84626,-54.09684
2018-10-11 01:10:00+00:00,391.2346,11.0,12.97,47.84626,-54.09684
2018-10-11 01:20:00+00:00,387.6662,11.0,13.05,47.84626,-54.09684
2018-10-11 01:30:00+00:00,376.8345,10.99,13.05,47.84626,-54.09684
2018-10-11 01:40:00+00:00,376.2796,10.9,13.05,47.84626,-54.09684
2018-10-11 01:50:00+00:00,375.9779,10.94,13.05,47.84626,-54.09684
2018-10-11 02:00:00+00:00,370.6513,10.97,12.97,47.84626,-54.09684
2018-10-11 02:10:00+00:00,362.6579,10.93,12.97,47.84626,-54.09684
2018-10-11 02:20:00+00:00,362.0295,10.9,13.05,47.84626,-54.09684
2018-10-11 02:30:00+00:00,361.7363,10.9,13.05,47.84626,-54.09684
2018-10-11 02:40:00+00:00,349.5513,10.88,13.05,47.84626,-54.09684
2018-10-11 02:50:00+00:00,341.613,10.81,13.05,47.84626,-54.09684
2018-10-11 03:00:00+00:00,338.9446,10.8,12.97,47.84626,-54.09684
2018-10-11 03:10:00+00:00,337.508,10.8,12.89,47.84626,-54.09684
2018-10-11 03:20:00+00:00,324.2746,10.8,12.97,47.84626,-54.09684
2018-10-11 03:30:00+00:00,312.8597,10.8,12.97,47.84626,-54.09684
2018-10-11 03:40:00+00:00,304.2647,10.8,13.05,47.84626,-54.09684
2018-10-11 03:50:00+00:00,294.3197,10.8,13.05,47.84626,-54.09684
2018-10-11 04:00:00+00:00,281.3997,10.8,12.97,47.84626,-54.09684
2018-10-11 04:10:00+00:00,271.2714,10.78,12.89,47.84626,-54.09684
2018-10-11 04:20:00+00:00,263.523,10.8,12.97,47.84626,-54.09684
2018-10-11 04:30:00+00:00,254.9348,10.8,12.97,47.84626,-54.09684
2018-10-11 04:40:00+00:00,244.0431,10.8,13.05,47.84626,-54.09684
2018-10-11 04:50:00+00:00,232.1915,10.8,13.05,47.84626,-54.09684
2018-10-11 05:00:00+00:00,224.3331,10.8,12.97,47.84626,-54.09684
2018-10-11 05:10:00+00:00,223.7181,10.82,12.89,47.84626,-54.09684
2018-10-11 05:20:00+00:00,215.5381,10.86,12.97,47.84626,-54.09684
2018-10-11 05:30:00+00:00,203.0198,10.87,12.97,47.84626,-54.09684
2018-10-11 05:40:00+00:00,202.5048,10.87,12.97,47.84626,-54.09684
2018-10-11 05:50:00+00:00,202.5148,10.88,12.97,47.84626,-54.09684
2018-10-11 06:00:00+00:00,195.3382,10.88,12.97,47.84626,-54.09684
2018-10-11 06:10:00+00:00,192.7932,10.88,12.81,47.84626,-54.09684
2018-10-11 06:20:00+00:00,201.8881,10.88,12.97,47.84626,-54.09684
2018-10-11 06:30:00+00:00,206.7431,10.87,12.97,47.84626,-54.09684
2018-10-11 06:40:00+00:00,200.0365,10.86,12.97,47.84626,-54.09684
2018-10-11 06:50:00+00:00,200.5664,10.8,12.97,47.84626,-54.09684
2018-10-11 07:00:00+00:00,212.4747,10.8,12.89,47.84626,-54.09684
2018-10-11 07:10:00+00:00,221.0831,10.8,12.81,47.84626,-54.09684
2018-10-11 07:20:00+00:00,215.8315,10.8,12.89,47.84626,-54.09684
2018-10-11 07:30:00+00:00,215.8531,10.8,12.89,47.84626,-54.09684
2018-10-11 07:40:00+00:00,229.7581,10.8,12.89,47.84626,-54.09684
2018-10-11 07:50:00+00:00,232.1131,10.8,12.97,47.84626,-54.09684
2018-10-11 08:00:00+00:00,229.9764,10.8,12.89,47.84626,-54.09684
2018-10-11 08:10:00+00:00,241.8165,10.78,12.81,47.84626,-54.09684
2018-10-11 08:20:00+00:00,255.5081,10.78,12.89,47.84626,-54.09684
2018-10-11 08:30:00+00:00,251.2731,10.79,12.89,47.84626,-54.09684
2018-10-11 08:40:00+00:00,247.7247,10.76,12.89,47.84626,-54.09684
2018-10-11 08:50:00+00:00,257.6547,10.7,12.89,47.84626,-54.09684
2018-10-11 09:00:00+00:00,267.328,10.7,12.81,47.84626,-54.09684
2018-10-11 09:10:00+00:00,263.5581,10.7,12.73,47.84626,-54.09684
2018-10-11 09:20:00+00:00,264.9547,10.7,12.81,47.84626,-54.09684
2018-10-11 09:30:00+00:00,281.5314,10.7,12.81,47.84626,-54.09684
2018-10-11 09:40:00+00:00,295.7597,10.7,12.89,47.84626,-54.09684
2018-10-11 09:50:00+00:00,290.1296,10.6,12.89,47.84626,-54.09684
2018-10-11 10:00:00+00:00,288.3881,10.6,12.81,47.84626,-54.09684
2018-10-11 10:10:00+00:00,307.3231,10.6,12.97,47.84626,-54.09684
2018-10-11 10:20:00+00:00,320.198,10.6,13.53,47.84626,-54.09684
2018-10-11 10:30:00+00:00,312.1964,10.56,14.24,47.84626,-54.09684
2018-10-11 10:40:00+00:00,316.9163,10.6,16.07,47.84626,-54.09684
2018-10-11 10:50:00+00:00,339.398,10.6,16.47,47.84626,-54.09684
2018-10-11 11:00:00+00:00,347.8864,10.6,16.39,47.84626,-54.09684
2018-10-11 11:10:00+00:00,342.4263,10.6,16.15,47.84626,-54.09684
2018-10-11 11:20:00+00:00,357.5162,10.63,16.47,47.84626,-54.09684
2018-10-11 11:30:00+00:00,381.3146,10.65,16.39,47.84626,-54.09684
2018-10-11 11:40:00+00:00,378.0963,10.61,16.31,47.84626,-54.09684
2018-10-11 11:50:00+00:00,374.8813,10.7,15.99,47.84626,-54.09684
2018-10-11 12:00:00+00:00,393.4029,10.7,14.96,47.84626,-54.09684
2018-10-11 12:10:00+00:00,406.9728,10.7,14.96,47.84626,-54.09684
2018-10-11 12:20:00+00:00,399.5045,10.71,15.2,47.84626,-54.09684
2018-10-11 12:30:00+00:00,401.8912,10.74,15.04,47.84626,-54.09684
2018-10-11 12:40:00+00:00,412.2546,10.74,15.04,47.84626,-54.09684
2018-10-11 12:50:00+00:00,409.4529,10.7,15.04,47.84626,-54.09684
2018-10-11 13:00:00+00:00,405.5329,10.7,14.8,47.84626,-54.09684
2018-10-11 13:10:00+00:00,410.4062,10.7,14.8,47.84626,-54.09684
2018-10-11 13:20:00+00:00,412.3295,10.65,14.96,47.84626,-54.09684
2018-10-11 13:30:00+00:00,406.4428,10.6,14.96,47.84626,-54.09684
2018-10-11 13:40:00+00:00,402.903,10.6,14.88,47.84626,-54.09684
2018-10-11 13:50:00+00:00,402.8328,10.6,14.96,47.84626,-54.09684
2018-10-11 14:00:00+00:00,398.8912,10.6,14.88,47.84626,-54.09684
2018-10-11 14:10:00+00:00,393.0929,10.59,14.88,47.84626,-54.09684
2018-10-11 14:20:00+00:00,390.198,10.59,14.88,47.84626,-54.09684
2018-10-11 14:30:00+00:00,383.3779,10.58,14.88,47.84626,-54.09684
2018-10-11 14:40:00+00:00,373.0946,10.57,14.88,47.84626,-54.09684
2018-10-11 14:50:00+00:00,368.6146,10.57,14.88,47.84626,-54.09684
2018-10-11 15:00:00+00:00,365.8146,10.58,14.8,47.84626,-54.09684
2018-10-11 15:10:00+00:00,351.6429,10.59,14.8,47.84626,-54.09684
2018-10-11 15:20:00+00:00,341.7064,10.6,14.88,47.84626,-54.09684
2018-10-11 15:30:00+00:00,337.3063,10.6,14.8,47.84626,-54.09684
2018-10-11 15:40:00+00:00,331.4597,10.61,14.8,47.84626,-54.09684
2018-10-11 15:50:00+00:00,318.9564,10.67,14.8,47.84626,-54.09684
2018-10-11 16:00:00+00:00,310.983,10.68,14.48,47.84626,-54.09684
2018-10-11 16:10:00+00:00,298.7647,10.69,14.32,47.84626,-54.09684
2018-10-11 16:20:00+00:00,286.3881,10.7,14.56,47.84626,-54.09684
2018-10-11 16:30:00+00:00,279.7364,10.8,14.72,47.84626,-54.09684
2018-10-11 16:40:00+00:00,273.6514,10.8,14.56,47.84626,-54.09684
2018-10-11 16:50:00+00:00,253.5881,10.8,14.64,47.84626,-54.09684
2018-10-11 17:00:00+00:00,238.5664,10.8,14.64,47.84626,-54.09684
2018-10-11 17:10:00+00:00,235.0714,10.8,14.4,47.84626,-54.09684
2018-10-11 17:20:00+00:00,223.4315,10.8,14.64,47.84626,-54.09684
2018-10-11 17:30:00+00:00,210.0481,10.8,14.56,47.84626,-54.09684
2018-10-11 17:40:00+00:00,208.1747,10.79,14.64,47.84626,-54.09684
2018-10-11 17:50:00+00:00,204.9848,10.77,14.64,47.84626,-54.09684
2018-10-11 18:00:00+00:00,191.4932,10.7,14.56,47.84626,-54.09684
2018-10-11 18:10:00+00:00,184.0098,10.7,14.32,47.84626,-54.09684
2018-10-11 18:20:00+00:00,188.8164,10.71,14.48,47.84626,-54.09684
2018-10-11 18:30:00+00:00,183.1615,10.79,14.56,47.84626,-54.09684
2018-10-11 18:40:00+00:00,173.5031,10.7,14.48,47.84626,-54.09684
2018-10-11 18:50:00+00:00,179.1265,10.69,14.48,47.84626,-54.09684
2018-10-11 19:00:00+00:00,187.4531,10.7,14.32,47.84626,-54.09684
2018-10-11 19:10:00+00:00,189.5664,10.7,14.24,47.84626,-54.09684
2018-10-11 19:20:00+00:00,193.6481,10.69,14.32,47.84626,-54.09684
2018-10-11 19:30:00+00:00,198.5215,10.6,14.24,47.84626,-54.09684
2018-10-11 19:40:00+00:00,199.1414,10.6,14.16,47.84626,-54.09684
2018-10-11 19:50:00+00:00,200.5498,10.6,14.16,47.84626,-54.09684
2018-10-11 20:00:00+00:00,206.0898,10.6,14.08,47.84626,-54.09684
2018-10-11 20:10:00+00:00,209.5681,10.6,13.92,47.84626,-54.09684
2018-10-11 20:20:00+00:00,213.5581,10.6,13.84,47.84626,-54.09684
2018-10-11 20:30:00+00:00,222.8097,10.5,13.84,47.84626,-54.09684
2018-10-11 20:40:00+00:00,227.5847,10.54,13.76,47.84626,-54.09684
2018-10-11 20:50:00+00:00,228.4764,10.5,13.76,47.84626,-54.09684
2018-10-11 21:00:00+00:00,233.8198,10.5,13.68,47.84626,-54.09684
2018-10-11 21:10:00+00:00,240.2031,10.49,13.44,47.84626,-54.09684
2018-10-11 21:20:00+00:00,239.5264,10.5,13.44,47.84626,-54.09684
2018-10-11 21:30:00+00:00,239.9365,10.5,13.44,47.84626,-54.09684
2018-10-11 21:40:00+00:00,246.1097,10.5,13.37,47.84626,-54.09684
2018-10-11 21:50:00+00:00,255.2531,10.5,13.37,47.84626,-54.09684
2018-10-11 22:00:00+00:00,258.3114,10.5,13.29,47.84626,-54.09684
2018-10-11 22:10:00+00:00,264.2564,10.5,13.13,47.84626,-54.09684
2018-10-11 22:20:00+00:00,272.8014,10.5,13.21,47.84626,-54.09684
2018-10-11 22:30:00+00:00,278.8597,10.5,13.13,47.84626,-54.09684
2018-10-11 22:40:00+00:00,280.0864,10.46,13.13,47.84626,-54.09684
2018-10-11 22:50:00+00:00,288.2181,10.45,13.13,47.84626,-54.09684
2018-10-11 23:00:00+00:00,294.198,10.45,13.05,47.84626,-54.09684
2018-10-11 23:10:00+00:00,300.0063,10.47,12.97,47.84626,-54.09684
2018-10-11 23:20:00+00:00,308.8163,10.46,13.05,47.84626,-54.09684
2018-10-11 23:30:00+00:00,322.9796,10.4,13.05,47.84626,-54.09684
2018-10-11 23:40:00+00:00,329.6229,10.4,13.05,47.84626,-54.09684
2018-10-11 23:50:00+00:00,333.953,10.4,13.05,47.84626,-54.09684
